Preview of NWS' New Version of Forecast
This preview is not operational and should not be used for support decisions.

Regional Weather Roundup (RWR)

Issued by National Weather Service (NWS)

                            
000
ASUS42 KTBW 190616
RWRFL 
FLORIDA REGIONAL WEATHER ROUNDUP
NATIONAL WEATHER SERVICE TAMPA BAY RUSKIN FL
200 AM EDT FRI APR 19 2019

NOTE: "FAIR" INDICATES FEW OR NO CLOUDS BELOW 12,000 FEET WITH NO
SIGNIFICANT WEATHER AND/OR OBSTRUCTIONS TO VISIBILITY.

FLZ001>010-012>015-112-114-115-190700-
PANHANDLE FLORIDA
  
CITY           SKY/WX    TMP DP  RH WIND       PRES   REMARKS
PENSACOLA      LGT RAIN  74  74 100 S26G39    29.61F FOG              
PENSACOLA NAS  CLOUDY    74  73  97 S25G33    29.62F THUNDER FOG      
MILTON NAS     CLOUDY    74  73  97 S25G49    29.60F THUNDER          
CRESTVIEW      CLOUDY    74  70  87 S18G39    29.63F                  
DUKE FIELD     DRIZZLE   73  73 100 S28G39    29.61F                  
VALPARAISO     LGT RAIN  73  73 100 S28G37    29.60F                  
MARY ESTHER    LGT RAIN  73  71  93 S25G39    29.59F FOG              
PANAMA CITY    CLOUDY    75  71  87 SE22G32   29.69F                  
TYNDALL AFB    CLOUDY    73  71  94 S24G31    29.69F FOG              
APALACHICOLA   CLOUDY    73  71  93 S21       29.75F                  

STATION/POSITION SKY/WX   TEMP    WIND        PRES    WAVE   SWELL
                          AIR SEA DIR/SP/G            HT/PER HT/PER
                          (F)     (DEG/KT/KT) (MB)    (FT/S) (FT/S)
30.1N   87.6W                                 1003.6F   8/ 7
29.2N   88.2W                     240/ 19/ 25 1004.8F   6/ 8   3/ 8
PANAMA CITY BEAC           72 72  160/ 25/ 29 1005.2F
TOWER C          NOT AVBL

$$
FLZ011-016>038-118-127-128-134-139-239-190700-
NORTH FLORIDA
  
CITY           SKY/WX    TMP DP  RH WIND       PRES   REMARKS
MARIANNA       FAIR      74  70  87 S16G22    29.66F                  
TALLAHASSEE    FAIR      73  71  93 SE9       29.74F                  
PERRY          FAIR      71  70  97 SE6       29.80F                  
LIVE OAK       CLOUDY    70  70 100 E3        29.82F                  
CROSS CITY     FAIR      71  68  93 S7        29.83F                  
LAKE CITY      FAIR      66  63  88 SE5       29.85F                  
GAINESVILLE    CLOUDY    73  68  84 S5        29.88F                  
PALATKA        CLOUDY   N/A N/A N/A S6        29.88F                  
MAYPORT NAS    LGT RAIN  70  67  90 SE12      29.86F                  
JACKSONVILLE   MOCLDY    73  70  90 SE8       29.85F                  
JAX NAS        MOCLDY    75  67  76 SE13      29.86F                  
JAX CECIL      MOCLDY    72  68  88 CALM      29.85F                  
FERNANDINA BEA FAIR      72  65  79 S10       29.86F                  
ST AUGUSTINE   LGT RAIN  71  69  93 S15       29.89F                  
PALM COAST     CLOUDY    76  70  82 S10G16    29.88F                  

STATION/POSITION SKY/WX   TEMP    WIND        PRES    WAVE   SWELL
                          AIR SEA DIR/SP/G            HT/PER HT/PER
                          (F)     (DEG/KT/KT) (MB)    (FT/S) (FT/S)
SHELL POINT      NOT AVBL
KEATON BEACH               74     140/ 13/ 15 1009.0F
CEDAR KEY                  76     180/ 17/ 21 1011.2F
FERNANDINA                 73 72  150/  8/ 13 1011.5F
30.7N   81.3W                 68                N/A     5/ 6
MAYPORT                    70 71  150/  5/  9 1011.6F
31.4N   80.9W              71 68  160/ 14/ 14 1011.9F   4/ 6
ST AUGUSTINE               72 73  180/  8/ 10 1011.9F

$$
FLZ040-043>046-052-053-057-058-063-144-190700-
INTERIOR CENTRAL FLORIDA
  
CITY           SKY/WX    TMP DP  RH WIND       PRES   REMARKS
OCALA          CLOUDY    71  70  96 SE7       29.88F                  
LEESBURG       FAIR      74  71  91 S10       29.89F                  
SANFORD        FAIR      75  71  87 S10       29.89F                  
ORLANDO EXEC   FAIR      75  71  87 S9        29.91F                  
ORLANDO INTL   FAIR      74  70  87 S13       29.91F                  
KISSIMMEE      FAIR      74  71  91 S10       29.92F                  
WINTER HAVEN   FAIR      76  69  79 S9        29.92F                  
BARTOW         FAIR      73  68  83 S8        29.91F                  
SEBRING        FAIR      74  71  89 S8        29.93F                  
OKEECHOBEE     FAIR      73  70  88 SE7       29.93F                  

$$
FLZ041-047-054-059-064-141-147-190700-
EAST CENTRAL FLORIDA
  
CITY           SKY/WX    TMP DP  RH WIND       PRES   REMARKS
DAYTONA BEACH  MOCLDY    75  72  90 S12G20    29.89F                  
DELAND         MOCLDY    75  70  83 S14       29.89F                  
JFK SPACE CTR  FAIR      77  73  87 S13G23    29.90F                  
CAPE CANAVERAL FAIR      76  71  83 S14       29.90F                  
PATRICK AFB    FAIR      77  77 100 SE18      29.91F                  
MELBOURNE      FAIR      77  72  84 S10       29.91F                  
VERO BEACH     FAIR      77  69  76 SE16G24   29.92F                  
FT PIERCE      FAIR      77  70  79 SE16      29.92F                  
STUART         FAIR      77  70  78 SE10G16   29.94F                  

STATION/POSITION SKY/WX   TEMP    WIND        PRES    WAVE   SWELL
                          AIR SEA DIR/SP/G            HT/PER HT/PER
                          (F)     (DEG/KT/KT) (MB)    (FT/S) (FT/S)
28.5N   80.2W              78     160/ 16/ 19 1013.8F   5/ 6   2/ 8
28.9N   78.5W              77 77  140/ 19/ 25 1015.9F   6/ 6   2/12
TRIDENT PIER               76 78  140/ 13/ 18 1014.3F
28.4N   80.5W                 77                N/A     4/ 5
27.5N   80.2W                 76                N/A     5/ 5

$$
FLZ050-056-061-142-242-148-248-149-249-151-251-155-255-
160-260-190700-
WEST CENTRAL FLORIDA
  
CITY           SKY/WX    TMP DP  RH WIND       PRES   REMARKS
CRYSTAL RIVER  MOCLDY    72  70  94 SE3       29.87F                  
INVERNESS      CLOUDY    72  72 100 CALM      29.89F                  
BROOKSVILLE    FAIR      72  70  93 SE7       29.88F                  
CLEARWATER AIR FAIR      75  70  83 S8        29.86F                  
ST PETE CLEARW FAIR      77  71  82 S12       29.87F                  
TAMPA INTL     FAIR      77  71  82 SE9       29.88F                  
TAMPA EXEC     FAIR      73  70  88 S6        29.89F                  
PLANT CITY     FAIR      75  73  94 SE7       29.92F                  
MACDILL AFB    FAIR      76  71  86 SE8       29.87F                  
PETER O KNIGHT CLOUDY    77  73  88 SE7       29.89F                  
ST PETERSBURG    N/A    N/A N/A N/A MISG      29.86F                  
SARASOTA       FAIR      76  71  85 SE10      29.87F                  
VENICE         CLOUDY    79  73  83 S10G21    29.90F                  

STATION/POSITION SKY/WX   TEMP    WIND        PRES    WAVE   SWELL
                          AIR SEA DIR/SP/G            HT/PER HT/PER
                          (F)     (DEG/KT/KT) (MB)    (FT/S) (FT/S)
27.3N   84.2W                 76                N/A     4/ 6
CLEARWATER BEACH           77 78  150/ 14/ 21 1011.6F
MIDDLE TAMPA BAY           77     180/ 13/ 17 1012.1F
VENICE                     79 78  160/ 19/ 23 1011.9F

$$
FLZ066-069-070-075>078-162-262-165-265-190700-
SOUTHWEST FLORIDA AND KEYS
  
CITY           SKY/WX    TMP DP  RH WIND       PRES   REMARKS
FT MYERS       MOCLDY    75  71  87 S9        29.90F                  
SOUTHWEST INTL MOCLDY    75  70  84 S12       29.91F                  
NAPLES         FAIR      78  75  90 SE10      29.90F                  
MARCO ISLAND   CLOUDY    79  73  82 SE18      29.92F                  
IMMOKALEE      FAIR      72  70  94 SE7       29.90F                  
MARATHON       CLOUDY    82  71  69 S18G31    29.93F                  
KEY WEST NAS   MOCLDY    81  73  76 SE24G30   29.91F                  
KEY WEST INTL  FAIR      80  74  81 SE22G30   29.91F                  

STATION/POSITION SKY/WX   TEMP    WIND        PRES    WAVE   SWELL
                          AIR SEA DIR/SP/G            HT/PER HT/PER
                          (F)     (DEG/KT/KT) (MB)    (FT/S) (FT/S)
NAPLES                     80 80  120/  7/ 14 1012.7F
DRY TORTUGAS               79     170/ 14/ 16 1012.3F
SAND KEY                   79                 1012.9F
SOMBRERO KEY               78                 1012.7F

$$
FLZ067-068-071>074-168-172>174-190700-
SOUTHEAST FLORIDA 
  
CITY           SKY/WX    TMP DP  RH WIND       PRES   REMARKS
W PALM BEACH   MOCLDY    78  72  81 SE20G25   29.93F                  
FT LAUDER-EXEC FAIR      80  70  71 SE14      29.93F                  
FT LAUDERDALE  FAIR      79  70  74 SE15G26   29.93F                  
POMPANO BEACH  FAIR      80  71  74 SE17G25   29.94F                  
PEMBROKE PINES FAIR      79  69  71 SE13      29.95F                  
OPA LOCKA      FAIR      80  69  69 SE16      29.94F                  
MIAMI          FAIR      79  70  74 SE15      29.94F                  
WEST KENDALL   FAIR      80  70  71 SE13G20   29.94F                  
HOMESTEAD      MOCLDY    79  72  78 SE13G20   29.93F                  

STATION/POSITION SKY/WX   TEMP    WIND        PRES    WAVE   SWELL
                          AIR SEA DIR/SP/G            HT/PER HT/PER
                          (F)     (DEG/KT/KT) (MB)    (FT/S) (FT/S)
VIRGINIA KEY               80 82  120/ 13/ 17 1013.8F
LAKE WORTH                 79 80  160/ 22/ 25 1014.8F
SETTLEMENT POINT           78     140/ 14/ 17 1014.7F

$$